[[{"header":{"parameterUnit":"m.s-1","parameterCategory":1,"la1":30.2991,"la2":30.254,"lo1":-89.0895,"lo2":-89.0444,"dy":0.0017,"dx":0.0017,"nx":28,"ny":28,"refTime":"2024-02-14T09:00:00:Z","depth":0,"parameterNumber":2,"parameterNumberName":"U-component_of_WINDS"},"data":[0,0,0,0,0,0,0,0,0,0,0,0,0,0,0,0,0,0,0,0,0,0,0,0,0,0,0,0,0,0,0,0,0,0,0,0,0,0,0,0,0,0,0,0,0,0,0,0,0,0,0,0,0,0,0,0,0,0,-2.5474,-2.5474,0,-2.5459,-2.5458,-2.5458,-2.5382,-2.538,-2.5378,-2.5377,-2.5365,-2.5366,-2.5367,0,0,0,0,0,0,0,0,0,0,0,0,0,-2.5442,-2.5443,-2.5474,-2.5474,-2.5474,-2.5459,-2.5458,-2.5458,-2.5382,-2.538,-2.5378,-2.5376,-2.5364,-2.5366,-2.5367,0,0,0,0,0,0,0,0,0,0,0,0,0,-2.5445,-2.5444,-2.5474,-2.5434,-2.543,-2.5459,-2.5458,-2.5458,-2.5383,-2.538,-2.5377,-2.5375,-2.5364,-2.5366,-2.5368,-2.5435,0,0,-2.5374,-2.5375,0,0,0,0,0,0,0,0,-2.5445,-2.5446,-2.544,-2.5437,-2.5433,-2.5419,-2.5443,-2.545,-2.5384,-2.5401,-2.5377,-2.5374,-2.5385,-2.5385,-2.5388,-2.5434,-2.5433,-2.5374,-2.5375,-2.5376,-2.5377,0,0,0,0,0,0,0,-2.5445,-2.5446,-2.5468,-2.544,-2.5435,-2.5418,-2.5415,-2.5444,-2.5409,-2.5399,-2.5394,-2.5393,-2.5383,-2.5387,-2.5388,-2.5433,-2.5374,-2.5376,-2.5377,-2.5378,-2.5536,-2.5539,0,0,0,0,0,0,-2.5449,-2.5446,-2.5468,-2.5467,-2.5432,-2.5421,-2.5418,-2.5426,-2.5408,-2.5403,-2.5395,-2.5389,-2.5385,-2.5385,-2.5387,-2.5466,-2.5376,-2.5378,-2.5379,-2.5533,-2.5536,-2.554,0,0,0,0,0,0,-2.5449,-2.5452,-2.5469,-2.5455,-2.5456,-2.5424,-2.5435,-2.5428,-2.5431,-2.5405,-2.5399,-2.5405,-2.5382,-2.5384,-2.5424,-2.5464,-2.5379,-2.5381,-2.5529,-2.5534,-2.5538,-2.5623,0,0,0,0,0,0,-2.5448,-2.5452,-2.5476,-2.5457,-2.5457,-2.5505,-2.5437,-2.5429,-2.5435,-2.5427,-2.5413,-2.5408,-2.538,-2.5421,-2.5426,-2.5466,-2.5382,-2.5526,-2.5531,-2.5537,-2.5617,-2.563,-2.5642,0,0,0,0,0,-2.5448,-2.5501,-2.5478,-2.5481,-2.5486,-2.5507,-2.5508,-2.5474,-2.5438,-2.5463,-2.5446,-2.5408,-2.5459,-2.5426,-2.543,-2.5472,-2.5523,-2.553,-2.5536,-2.5611,-2.5628,-2.5641,0,0,0,0,0,0,-2.5527,-2.5498,-2.5472,-2.552,-2.5517,-2.5494,-2.5524,-2.5492,-2.55,-2.5492,-2.5451,-2.5449,-2.5495,-2.5487,-2.545,-2.5537,-2.5485,-2.5493,-2.554,-2.5555,-2.5568,-2.5569,-2.5384,0,0,0,0,0,-2.555,-2.5569,-2.5542,-2.5588,-2.5587,-2.5557,-2.5564,-2.5539,-2.5534,-2.5532,-2.5518,-2.5516,-2.5532,-2.5543,-2.5556,-2.5615,-2.5612,-2.5646,-2.5659,-2.5669,-2.5677,-2.571,-2.5725,-2.5562,-2.5562,-2.5561,0,0,-2.5599,-2.5585,-2.5599,-2.5604,-2.5598,-2.5619,-2.5556,-2.558,-2.5597,-2.5536,-2.5573,-2.5563,-2.5558,-2.5609,-2.563,-2.5604,-2.5721,-2.5677,-2.5686,-2.5688,-2.5718,-2.5734,-2.5748,-2.5566,-2.5565,-2.5565,0,0,-2.5698,-2.5688,-2.5726,-2.5722,-2.5714,-2.5693,-2.5702,-2.5685,-2.5676,-2.5712,-2.5668,-2.5687,-2.5714,-2.5713,-2.5716,-2.5818,-2.5784,-2.5823,-2.5888,-2.5921,-2.5934,-2.5946,-2.5984,-2.5998,-2.583,-2.5831,-2.5831,0,-2.5759,-2.5788,-2.575,-2.5778,-2.5782,-2.5728,-2.5767,-2.5765,-2.5763,-2.5768,-2.5738,-2.5772,-2.5765,-2.5815,-2.584,-2.5844,-2.5855,-2.5825,-2.5935,-2.5946,-2.5956,-2.5992,-2.6006,-2.5836,-2.5835,-2.5834,-2.5834,0,-2.5865,-2.5886,-2.5918,-2.5916,-2.5924,-2.5957,-2.5926,-2.5939,-2.5913,-2.5897,-2.5935,-2.5925,-2.5936,-2.5946,-2.5921,-2.5994,-2.5978,-2.5942,-2.5889,-2.5977,-2.6011,-2.6024,-2.5843,-2.5841,-2.5839,-2.5838,0,0,-2.6013,-2.599,-2.6003,-2.6002,-2.599,-2.6007,-2.6039,-2.6049,-2.6062,-2.6062,-2.609,-2.6115,-2.6082,-2.6086,-2.6061,-2.609,-2.6173,-2.6051,-2.605,-2.6076,-2.6256,-2.6284,-2.63,-2.6151,-2.6153,-2.6155,-2.6257,0,-2.6109,-2.6161,-2.6129,-2.6187,-2.6208,-2.6158,-2.6186,-2.6183,-2.6169,-2.6186,-2.617,-2.6189,-2.6144,-2.6146,-2.6172,-2.6158,-2.6209,-2.615,-2.6178,-2.618,-2.6182,-2.6317,-2.6346,-2.6443,-2.6269,-2.6272,-2.6273,0,-2.6227,-2.6233,-2.6293,-2.6279,-2.6287,-2.6313,-2.632,-2.6336,-2.6333,-2.632,-2.6326,-2.6294,-2.6327,-2.6274,-2.632,-2.6281,-2.6291,-2.6286,-2.6288,-2.6291,-2.6233,-2.6325,-2.6473,-2.6488,-2.6293,-2.6291,-2.629,0,-2.6332,-2.6354,-2.6394,-2.6395,-2.6379,-2.6399,-2.6394,-2.6387,-2.6396,-2.6403,-2.6409,-2.642,-2.6427,-2.6437,-2.641,-2.6374,-2.6461,-2.6405,-2.6454,-2.6455,-2.6475,-2.6475,-2.6629,-2.6479,-2.6479,-2.6479,-2.6479,0,-2.6443,-2.6483,-2.6441,-2.6465,-2.6509,-2.6472,-2.6517,-2.6506,-2.6501,-2.6525,-2.6482,-2.6505,-2.6467,-2.6487,-2.6467,-2.651,-2.6513,-2.6505,-2.65,-2.651,-2.6511,-2.6517,-2.651,-2.6483,-2.6482,-2.6481,-2.648,0,-2.6567,-2.654,-2.6581,-2.6563,-2.6559,-2.6593,-2.6578,-2.6601,-2.6584,-2.6614,-2.6619,-2.6594,-2.6615,-2.6589,-2.6608,-2.6595,-2.6654,-2.6637,-2.6655,-2.6651,-2.6701,-2.6698,-2.6865,-2.6886,-2.6722,-2.6724,-2.6725,0,-2.6641,-2.667,-2.6655,-2.6667,-2.6664,-2.6684,-2.6693,-2.6659,-2.667,-2.6669,-2.6693,-2.6711,-2.6723,-2.6761,-2.6745,-2.676,-2.6745,-2.6802,-2.6747,-2.6757,-2.6748,-2.6747,-2.6751,-2.6814,-2.6816,-2.6818,-2.6819,0,-2.6775,-2.676,-2.6774,-2.6784,-2.6795,-2.6802,-2.6805,-2.6818,-2.6782,-2.6797,-2.6818,-2.6828,-2.6848,-2.6867,-2.6878,-2.6874,-2.6843,-2.6837,-2.6849,-2.6861,-2.687,-2.6868,-2.6688,-2.6833,-2.6832,-2.6831,-2.683,-2.6829,-2.6877,-2.6901,-2.6895,-2.6913,-2.6911,-2.6916,-2.6937,-2.6923,-2.694,-2.6953,-2.6932,-2.6959,-2.6958,-2.6969,-2.6969,-2.6992,-2.6967,-2.6985,-2.6989,-2.6995,-2.7003,-2.6866,-2.6993,-2.6993,-2.6993,-2.6992,-2.6992,0,-2.701,-2.7004,-2.702,-2.7026,-2.704,-2.7007,-2.701,-2.7025,-2.7049,-2.7049,-2.7062,-2.7088,-2.7107,-2.7093,-2.711,-2.713,-2.7116,-2.7136,-2.7135,-2.7135,-2.7023,-2.7012,-2.7148,-2.7148,-2.7147,-2.7147,-2.7147,-2.7147,-2.7081,-2.7121,-2.7107,-2.7147,-2.7141,-2.7167,-2.7171,-2.7176,-2.7177,-2.7207,-2.7222,-2.7213,-2.7208,-2.7224,-2.7241,-2.7237,-2.7246,-2.7272,-2.7262,-2.7158,-2.7143,-2.7128,-2.7117,-2.7273,-2.7274,-2.7373,-2.7374,-2.7374]},{"header":{"parameterUnit":"m.s-1","parameterCategory":1,"la1":30.2991,"la2":30.254,"lo1":-89.0895,"lo2":-89.0444,"dy":0.0017,"dx":0.0017,"nx":28,"ny":28,"refTime":"2024-02-14T09:00:00:Z","depth":0,"parameterNumber":3,"parameterNumberName":"V-component_of_WINDS"},"data":[0,0,0,0,0,0,0,0,0,0,0,0,0,0,0,0,0,0,0,0,0,0,0,0,0,0,0,0,0,0,0,0,0,0,0,0,0,0,0,0,0,0,0,0,0,0,0,0,0,0,0,0,0,0,0,0,0,0,0.0439,0.0438,0,0.0411,0.0411,0.041,0.0429,0.043,0.0431,0.0432,0.0402,0.04,0.0399,0,0,0,0,0,0,0,0,0,0,0,0,0,0.0507,0.0506,0.0439,0.0438,0.0438,0.0411,0.0411,0.041,0.0429,0.043,0.0431,0.0432,0.0402,0.04,0.0398,0,0,0,0,0,0,0,0,0,0,0,0,0,0.0478,0.0505,0.0439,0.0444,0.0444,0.0411,0.0411,0.041,0.0429,0.043,0.0431,0.0433,0.0403,0.0401,0.0398,0.0358,0,0,0.0391,0.039,0,0,0,0,0,0,0,0,0.048,0.0475,0.0444,0.0444,0.0444,0.0425,0.0424,0.0393,0.0429,0.0435,0.0432,0.0433,0.0408,0.0406,0.0397,0.0356,0.0355,0.0391,0.0389,0.0388,0.0387,0,0,0,0,0,0,0,0.0482,0.0477,0.0428,0.0443,0.0443,0.0448,0.0445,0.0418,0.0415,0.0434,0.0436,0.0432,0.0409,0.04,0.0397,0.0354,0.0391,0.0389,0.0387,0.0386,0.0278,0.0277,0,0,0,0,0,0,0.0483,0.0478,0.0429,0.0427,0.0465,0.0445,0.0442,0.043,0.0415,0.0414,0.0431,0.0433,0.0403,0.04,0.0396,0.0347,0.0388,0.0386,0.0385,0.028,0.0278,0.0277,0,0,0,0,0,0,0.0485,0.0479,0.043,0.0453,0.0447,0.0443,0.0428,0.0429,0.042,0.0413,0.0412,0.0423,0.0404,0.0399,0.0367,0.0346,0.0385,0.0383,0.0282,0.0279,0.0277,0.0248,0,0,0,0,0,0,0.0487,0.0479,0.0464,0.0453,0.0446,0.0401,0.0427,0.0427,0.0416,0.0418,0.0404,0.0403,0.0405,0.0371,0.0365,0.0343,0.0381,0.0283,0.0281,0.0278,0.0251,0.0245,0.0241,0,0,0,0,0,0.0489,0.0456,0.0463,0.0457,0.0426,0.04,0.0396,0.0399,0.0414,0.0398,0.0394,0.0404,0.035,0.0367,0.0361,0.0338,0.0285,0.0281,0.0278,0.0253,0.0247,0.0241,0,0,0,0,0,0,0.0464,0.0455,0.0462,0.0425,0.0413,0.0403,0.0383,0.0392,0.0375,0.0378,0.0382,0.0378,0.0344,0.0339,0.0358,0.0298,0.032,0.0315,0.0303,0.0296,0.0291,0.0292,0.0379,0,0,0,0,0,0.0455,0.0434,0.0427,0.0395,0.0389,0.0387,0.0376,0.0379,0.0367,0.0362,0.0355,0.0343,0.0323,0.031,0.0291,0.0251,0.0248,0.0233,0.0228,0.0223,0.0219,0.0196,0.0189,0.0266,0.0266,0.0266,0,0,0.0434,0.0426,0.0413,0.039,0.0381,0.036,0.0383,0.0359,0.0343,0.0358,0.0327,0.0322,0.0308,0.0272,0.0256,0.0266,0.0197,0.0219,0.0216,0.0213,0.0192,0.0185,0.0179,0.0264,0.0264,0.0265,0,0,0.0385,0.0378,0.035,0.0341,0.0328,0.0328,0.0321,0.0311,0.0308,0.0277,0.0288,0.0269,0.0235,0.0225,0.0215,0.0164,0.0172,0.0158,0.013,0.0108,0.0102,0.0097,0.0077,0.007,0.0154,0.0154,0.0154,0,0.0361,0.0329,0.0334,0.031,0.0299,0.0313,0.0285,0.0276,0.0258,0.025,0.0262,0.022,0.0212,0.0173,0.016,0.0153,0.0145,0.0158,0.0103,0.0097,0.0092,0.0074,0.0066,0.0152,0.0152,0.0152,0.0153,0,0.0299,0.0277,0.0256,0.0239,0.0226,0.0199,0.0201,0.0187,0.0192,0.019,0.0159,0.015,0.013,0.0121,0.0126,0.0083,0.009,0.0102,0.0123,0.0083,0.0065,0.0059,0.0149,0.015,0.0151,0.0151,0,0,0.0231,0.0218,0.021,0.0202,0.019,0.0173,0.0148,0.0129,0.0116,0.0104,0.0082,0.0054,0.0066,0.0055,0.0058,0.004,-0.0002,0.0055,0.0054,0.0043,-0.005,-0.0062,-0.007,0.0005,0.0004,0.0003,-0.005,0,0.0181,0.0136,0.0141,0.0099,0.0078,0.0092,0.007,0.006,0.0058,0.004,0.0038,0.0017,0.0035,0.0029,0.0011,0.0007,-0.0021,0.0011,-0.0017,-0.0018,-0.0016,-0.0079,-0.0091,-0.014,-0.0056,-0.0058,-0.0058,0,0.0115,0.01,0.0056,0.0047,0.0038,0.0018,0.0001,-0.0015,-0.0026,-0.0027,-0.0038,-0.0031,-0.0057,-0.0033,-0.0069,-0.0048,-0.0058,-0.0062,-0.0064,-0.0068,-0.0042,-0.0087,-0.0155,-0.0164,-0.0069,-0.0068,-0.0067,0,0.0068,0.0037,0.0007,-0.0,-0.0011,-0.0025,-0.0031,-0.004,-0.0052,-0.0066,-0.0074,-0.0091,-0.0102,-0.0115,-0.0113,-0.0096,-0.015,-0.0126,-0.0152,-0.0152,-0.0166,-0.0166,-0.024,-0.017,-0.017,-0.0169,-0.0169,0,0.0009,-0.0019,-0.0015,-0.0034,-0.0065,-0.0058,-0.0089,-0.0093,-0.0101,-0.0121,-0.0109,-0.0128,-0.0122,-0.0141,-0.0139,-0.017,-0.0174,-0.0176,-0.0175,-0.0178,-0.0178,-0.0187,-0.0184,-0.0171,-0.0171,-0.0171,-0.017,0,-0.005,-0.0048,-0.0081,-0.0087,-0.009,-0.0112,-0.0119,-0.0137,-0.0137,-0.0162,-0.0167,-0.0168,-0.0189,-0.0187,-0.0212,-0.021,-0.0249,-0.0243,-0.0245,-0.0245,-0.0272,-0.027,-0.0355,-0.0367,-0.0287,-0.0288,-0.0289,0,-0.0089,-0.011,-0.0119,-0.0131,-0.0137,-0.0157,-0.0168,-0.0162,-0.0174,-0.0188,-0.0205,-0.0224,-0.024,-0.0275,-0.0278,-0.0296,-0.0292,-0.0321,-0.0295,-0.0297,-0.0295,-0.0295,-0.0297,-0.0327,-0.0328,-0.0329,-0.0329,0,-0.0158,-0.0156,-0.0173,-0.0189,-0.0203,-0.0216,-0.0227,-0.0238,-0.0233,-0.0247,-0.0269,-0.0281,-0.0305,-0.0325,-0.0342,-0.0348,-0.0338,-0.0337,-0.0344,-0.0348,-0.0349,-0.0351,-0.0261,-0.0335,-0.0335,-0.0334,-0.0334,-0.0334,-0.021,-0.0228,-0.0237,-0.0256,-0.0264,-0.0275,-0.0292,-0.0294,-0.0311,-0.033,-0.0325,-0.0349,-0.0359,-0.0381,-0.0388,-0.0407,-0.0397,-0.0407,-0.041,-0.0413,-0.0417,-0.0344,-0.041,-0.041,-0.0409,-0.0409,-0.0409,0,-0.028,-0.0285,-0.0302,-0.0318,-0.0333,-0.0321,-0.0333,-0.0346,-0.0368,-0.0377,-0.0393,-0.0417,-0.0436,-0.044,-0.0458,-0.0473,-0.0469,-0.0478,-0.0478,-0.048,-0.0424,-0.0417,-0.0481,-0.0481,-0.0481,-0.0481,-0.0481,-0.0481,-0.0319,-0.0349,-0.0348,-0.0382,-0.0386,-0.041,-0.0417,-0.0427,-0.0435,-0.0463,-0.0478,-0.048,-0.0487,-0.0506,-0.0523,-0.0524,-0.0532,-0.0543,-0.0543,-0.0491,-0.0484,-0.0477,-0.047,-0.0545,-0.0545,-0.0597,-0.0597,-0.0598]}]]